Location: Trebic
(49.2170°N, 15.8830°E)
Time: 02:21:49
(UTC+02:00)

Transit 4A - Pass Details

Date: 29 August 2019
Orbit: 865 x 980 km, 66.8° (Epoch: 20 September)

Event Time Altitude Azimuth Distance (km) Brightness Sun altitude
Rises 22:50:48 0° 314° (NW) 3,669 12.3 -25.3°
Reaches altitude 10° 22:54:23 10° 334° (NNW) 2,705 11.3 -25.6°
Maximum altitude 22:58:28 17° 14° (NNE) 2,186 10.3 -26.0°
Drops below altitude 10° 23:02:29 10° 55° (NE) 2,654 10.3 -26.4°
Enters shadow 23:05:05 - 71° (ENE) 3,317 10.7 -26.6°
Sets 23:05:57 0° 75° (ENE) 3,573 - -26.7°
